Weather Roundup
Issued by NWS

Home | Current Version | Previous Version | Graphics & Text | Print | Product List | Glossary Off
Versions: 1 2 3 4 5 6 7 8 9 10 11 12 13 14 15 16 17 18 19 20 21 22 23 24 25 26 27 28 29 30 31 32 33 34 35 36 37 38 39 40 41 42 43 44 45 46 47 48 49 50

000
NZUS93 KARX 131210
HRRWXR

CURRENT HOURLY OBSERVATIONS ACROSS
MUCH OF THE UPPER MISSISSIPPI VALLEY
NATIONAL WEATHER SERVICE LA CROSSE WI
700 AM CDT SUN JUL 13 2014


...SOUTHEAST MINNESOTA...


CITY           SKY/WX    TMP DP  RH WIND       PRES   REMARKS
ROCHESTER      SUNNY     65  63  93 W10       29.98R
ROCHESTER/MAYO FAIR      65  63  91 W10       29.96R
WINONA         MOSUNNY   64  63  94 NW5       29.93R
AUSTIN         SUNNY     64  64 100 W7        29.97R
ALBERT LEA     SUNNY     66  64  94 W6        29.98R
DODGE CENTER   MOSUNNY   66  63  88 W9        29.97R
PRESTON        MOSUNNY   65  64  96 W9        29.96R
OWATONNA       MOSUNNY   64  63  94 W5        29.97R
FARIBAULT      SUNNY     68  61  77 NW5       29.97R
$$

...ELSEWHERE IN MINNESOTA...


CITY           SKY/WX    TMP DP  RH WIND       PRES   REMARKS
MINNEAPOLIS    SUNNY     64  58  80 NW6       29.96R
INTNL FALLS    CLOUDY    52  48  86 W7        29.84F
DULUTH         SUNNY     54  49  83 W8        29.91R
RED WING       SUNNY     64  61  88 N8        29.94R
REDWOOD FALLS  SUNNY     63  61  93 W5        30.00R
MANKATO        SUNNY     64  61  88 NW6       29.98R
WORTHINGTON    SUNNY     64  63  94 W6        30.05R
FAIRMONT       SUNNY     66  61  82 W9        30.00R
$$

...SOUTHWEST WISCONSIN...


CITY           SKY/WX    TMP DP  RH WIND       PRES   REMARKS
LA CROSSE      SUNNY     66  65  96 SE3       29.91S
PRAIRIE DU CHI CLOUDY    66  64  91 SW3       29.95F
BOSCOBEL       CLOUDY    67  65  93 SW5       29.95R FOG
LONE ROCK      CLOUDY    69  65  86 W5        29.95R FOG
PLATTEVILLE    CLOUDY    65  64  96 W6        29.98S
FORT MC COY    MOSUNNY   62  61  97 CALM      29.92S FOG
CAMP DOUGLAS   SUNNY     63  63 100 W2        29.91S
VIROQUA        CLOUDY    64  64 100 SW9       29.95R VSB<1/4
WIS DELLS      PTSUNNY   63  61  94 W10       29.93R FOG
$$

...ELSEWHERE IN WISCONSIN...


CITY           SKY/WX    TMP DP  RH WIND       PRES   REMARKS
MILWAUKEE      MOSUNNY   66  61  84 W10       29.91R
MADISON        CLOUDY    66  63  90 VRB3      29.93R
GREEN BAY      CLOUDY    64  62  93 SW6       29.86S
EAU CLAIRE     SUNNY     62  59  90 NW7       29.92R
BLACK RVR FLS  FAIR      64  64 100 W3        29.91R FOG
MEDFORD        MOSUNNY   61  59  94 W9        29.90S
WAUSAU         PTSUNNY   64  62  93 W12       29.87R
WIS RAPIDS     CLOUDY    65  63  93 W6        29.91R
MARSHFIELD     CLOUDY    63  63 100 W7        29.90R FOG
RICE LAKE      MOSUNNY   58  54  87 NW5       29.94S
$$

...NORTHEAST IOWA...


CITY           SKY/WX    TMP DP  RH WIND       PRES   REMARKS
WATERLOO       FOG       63  62  97 SW5       29.98R VSB 1/2
DUBUQUE        CLOUDY    64  64 100 W7        29.98R
DECORAH          N/A    N/A N/A N/A MISG        N/A
MASON CITY     SUNNY     67  65  93 W12       30.00R
CHARLES CITY   SUNNY     63  63 100 SW5       29.98S FOG
OELWEIN        FOG       64  64 100 SW7       30.00R VSB<1/4
$$

...ELSEWHERE IN IOWA...


CITY           SKY/WX    TMP DP  RH WIND       PRES   REMARKS
DES MOINES     PTSUNNY   68  66  93 W5        30.01F
IOWA CITY      CLOUDY    68  66  93 NW7       30.00R
FORT DODGE     SUNNY     63  61  94 CALM      30.03R
MARSHALLTOWN   FOG       64  64 100 SW5       30.00S VSB<1/4
CEDAR RAPIDS   CLOUDY    66  65  96 W7        29.99R FOG
$$

...NORTHERN ILLINOIS...


CITY           SKY/WX    TMP DP  RH WIND       PRES   REMARKS
CHICAGO-OHARE  PTSUNNY   68  63  84 W7        29.93R
DUPAGE         CLOUDY    67  64  90 NW9       29.93R
CHICAGO-MIDWAY PTSUNNY   72  69  90 W6        29.92R
MOLINE         CLOUDY    67  64  90 W8        29.97S
ROCKFORD       PTSUNNY   65  63  93 W5        29.98R
STERLING       CLOUDY    66  63  88 NW7       29.97R
PEORIA         CLOUDY    73  68  84 N5        29.98R
$$

NOTE: "FAIR" INDICATES FEW OR NO CLOUDS BELOW 12,000 FEET WITH NO
SIGNIFICANT WEATHER AND/OR OBSTRUCTIONS TO VISIBILITY. WIND
SPEEDS ARE IN MILES-PER-HOUR.



USA.gov is the U.S. government's official web portal to all federal, state and local government web resources and services.